User: anonymous   Login
Location: Oshawa
(43.9000°N, 78.8670°W)
Time: 01:43:26
(UTC-04:00)
Language:

CZ-4C R/B - Orbit

View from above orbital plane
View from above orbital plane
View from above satellite
View from above satellite

Ground track
Ground track

The orbit data is extracted from the following two-line orbital elements,

1 32290U 07055B   15247.23639422  .00003382  00000-0  11249-3 0  9999
2 32290  97.5395 331.5181 0074844 289.4017 125.6223 15.29226068431983
Epoch (UTC): 04 September 2015 05:40:24
Eccentricity: 0.0074844
inclination: 97.5395°
perigee height: 427 km
apogee height: 529 km
right ascension of ascending node: 331.5181°
argument of perigee: 289.4017°
revolutions per day: 15.29226068
mean anomaly at epoch: 125.6223°
orbit number at epoch: 43198

The dashed part of the orbit path shows where the satellite is in the earth's shadow,  

DLR